EDVK

Kassel-Calden Airport

Airport
ICAO code
EDVK
Summary
ICAO Region
EUR
ICAO Territory
Location

Kassel, Germany,

Coordinates
51° 25' 2" N , 9° 23' 6" E
KCC
Airport WX
Fog
Metar
EDVK 181550Z 30009KT 270V330 9999 FEW041 09/01 Q1017

Description

Located 16.7 Km northwest of the German city of Kassel, the airport is home to a flying school.

Climatology

Temperate Marine climate/Oceanic climate (Köppen climate classification Cfb). Moderately cool summer and comparatively warm winter with a temperature range of only 14°C. Prevailing south-westerly winds from the Atlantic Ocean.

Runways

Designator Length Width Surface Rops
04L/22R 700 30 GRS No/No
4/22 1500 30 ASP No/No

Airport map

Aerial View

Airport accidents

SKYbrary Partners:

Safety knowledge contributed by: